BEIDOU-3 M2 (C20)

Last updated on Jan. 19, 2020, 4:38 a.m. UTC

1 43002U 17069B   20018.42495231  .00000007  00000-0  00000-0 0  9990
2 43002  55.1675 141.3090 0006954 312.9557  49.5882  1.86231550 14983
UTC
Height (km)
Latitude
Longitude
Inclination
Orbital Period
UTC large
Height (km)
Speed (km/s)
/
Latitude / Longitude
Inclination (degrees)
Orbital Period (minutes)
Azimuth
Elevation
Range (km)
Doppler Factor
iOS Compass Heading
iOS Angle

Next 30 passes for location: Hong Kong

Rise time Rise Azimuth (degrees) Set time Set Azimuth (degrees) Duration Max altitude (degrees)

No matching passes for this satellites